SCP
0 0 0 0 0 0 0 0 0 0 0 0 0 0 0 0 0 0 0 0 0 0 0 0 0 0 0 0 0 0 0 0 0 0 0 0 0 0
0 0 0 0 0 0 0 0 0 0 0 0 0 0 0 0 0 0 0 0 0 0 0 0 0 0 0 0 0 0 0 0 0 0 0 0 0 0
0 0 0 0 0 0 0 0 0 0 0 0 0 0 0 0 0 0 0 0 0 0 0 0 0 0 0 0 0 0 0 0 0 0 0 0 0 0
0 0 0 0 0 0 0 0 0 0 0 0 0 0 0 0 0 0 0 0 0 0 0 0 0 0 0 0 0 0 0 0 0 0 0 0 0 0
0 0 0 0 0 0 0 0 0 0 0 0 0 0 0 0 0 0 0 0 0 0 0 0 0 0 0 0 0 0 0 0 0 0 0 0 0 0
0 0 0 0 0 0 0 0 0 0 0 0 0 0 0 0 0 0 0 0 0 0 0 0 0 0 0 0 0 0 0 0 0 0 0 0 0 0
0 0 0 0 0 0 0 0 0 0 0 0 0 0 0 0 0 0 0 0 0 0 0 0 0 0 0 0 0 0 0 0 0 0 0 0 0 0
0 0 0 0 0 0 0 0 0 0 0 0 0 0 0 0 0 0 0 0 0 0 0 0 0 0 0 0 0 0 0 0 0 0 0 0 0 0
0 0 0 0 0 0 0 0 0 0 0 0 0 0 0 0 0 0 0 0 0 0 0 0 0 0 0 0 0 0 0 0 0 0 0 0 0 0
0 0 0 0 0 0 0 0 0 0 0 0 0 0 0 0 0 0 0 0 0 0 0 0 0 0 0 0 0 0 0 0 0 0 0 0 0 0
0 0 0 0 0 0 0 0 0 0 0 0 0 0 0 0 0 0 0 0 0 0 0 0 0 0 0 0 0 0 0 0 0 0 0 0 0 0
0 0 0 0 0 0 0 0 0 0 0 0 0 0 0 0 0 0 0 0 0 0 0 0 0 0 0 0 0 0 0 0 0 0 0 0 0 0
0 0 0 0 0 0 0 0 0 0 0 0 0 0 0 0 0 0 0 0 0 0 0 0 0 0 0 0 0 0 0 0 0 0 0 0 0 0
0 0 0 0 0 0 0 0 0 0 0 0 0 0 0 0 0 0 0 0 0 0 0 0 0 0 0 0 0 0 0 0 0 0 0 0 0 0
0 0 0 0 0 0 0 0 0 0 0 0 0 0 0 0 0 0 0 0 0 0 0 0 0 0 0 0 0 0 0 0 0 0 0 0 0 0
0 0 0 0 0 0 0 0 0 0 0 0 0 0 0 0 0 0 0 0 0 0 0 0 0 0 0 0 0 0 0 0 0 0 0 0 0 0
0 0 0 0 0 0 0 0 0 0 0 0 0 0 0 0 0 0 0 0 0 0 0 0 0 0 0 0 0 0 0 0 0 0 0 0 0 0
0 0 0 0 0 0 0 0 0 0 0 0 0 0 0 0 0 0 0 0 0 0 0 0 0 0 0 0 0 0 0 0 0 0 0 0 0 0
0 0 0 0 0 0 0 0 0 0 0 0 0 0 0 0 0 0 0 0 0 0 0 0 0 0 0 0 0 0 0 0 0 0 0 0 0 0
0 0 0 0 0 0 0 0 0 0 0 0 0 0 0 0 0 0 0 0 0 0 0 0 0 0 0 0 0 0 0 0 0 0 0 0 0 0
0 0 0 0 0 0 0 0 0 0 0 0 0 0 0 0 0 0 0 0 0 0 0 0 0 0 0 0 0 0 0 0 0 0 0 0 0 0
0 0 0 0 0 0 0 0 0 0 0 0 0 0 0 0 0 0 0 0 0 0 0 0 0 0 0 0 0 0 0 0 0 0 0 0 0 0
0 0 0 0 0 0 0 0 0 0 0 0 0 0 0 0 0 0 0 0 0 0 0 0 0 0 0 0 0 0 0 0 0 0 0 0 0 0
Wind_Speed
5 6 5 5 4 5 5 4 5 7 7 5 4 4 4 5 13 9 8 18 24 24 24 24 24 25 25 25 25 25 25 25 25 26 26 27 26 26
4 5 6 5 5 5 5 5 6 7 9 4 5 6 8 10 15 11 9 22 23 23 24 24 24 24 25 25 25 25 25 25 25 26 26 26 26 26
6 6 7 6 5 5 5 5 6 6 12 9 5 6 8 10 10 9 9 9 10 21 23 24 24 24 24 24 24 24 24 24 24 25 25 25 25 25
7 7 8 6 7 6 6 7 7 7 9 14 8 6 8 8 10 10 10 9 7 18 23 24 24 24 23 23 23 22 22 22 22 23 23 24 24 24
8 8 9 8 9 7 7 7 7 8 8 10 11 7 7 7 8 9 10 8 10 14 19 21 22 23 23 22 22 21 20 20 21 21 21 21 22 23
9 9 9 9 10 9 8 9 8 9 9 10 11 8 7 7 6 7 8 6 8 9 13 16 19 22 22 22 22 21 20 20 20 20 20 20 20 21
9 9 10 13 16 13 10 8 8 8 8 9 10 9 7 6 6 6 9 8 8 8 8 8 8 7 10 16 19 19 20 20 20 20 20 20 20 21
9 9 9 12 16 20 22 21 17 11 9 9 10 10 10 8 7 7 8 10 9 4 5 7 5 7 7 6 15 20 20 20 20 20 19 19 20 21
8 8 9 9 15 9 15 21 19 22 22 14 12 12 11 9 9 11 10 11 11 6 6 9 6 8 7 9 19 20 20 20 19 19 19 18 18 19
9 9 10 10 10 12 10 11 12 12 15 11 11 12 11 10 11 12 12 11 9 6 6 8 6 7 7 6 15 19 18 18 18 17 17 17 17 17
9 9 10 10 17 22 15 12 12 11 16 22 22 20 21 21 17 8 7 8 9 6 4 5 5 5 5 6 9 14 15 15 15 15 15 15 15 14
8 9 16 17 21 23 14 11 13 11 9 11 13 14 12 13 18 9 6 7 8 6 4 4 3 3 4 3 3 4 6 10 12 12 12 12 13 6
8 7 8 20 23 24 21 12 16 16 9 8 7 7 6 6 6 6 6 7 8 7 3 3 3 3 5 4 3 3 3 3 3 5 8 10 11 7
9 7 9 21 24 24 19 18 23 19 6 5 5 6 6 6 6 6 7 8 8 9 7 6 5 5 5 5 4 3 3 3 3 3 3 6 7 8
9 17 21 24 23 15 18 23 18 8 5 6 7 7 6 6 5 5 6 6 7 8 8 8 7 6 6 6 5 3 3 3 3 3 2 2 2 2
11 15 22 21 17 17 16 12 7 6 7 7 7 6 5 4 5 5 4 4 4 5 5 7 7 7 6 6 6 5 4 3 2 2 2 2 2 2
12 8 6 6 6 6 7 7 6 6 7 6 6 6 6 6 6 4 4 4 4 4 4 3 4 5 7 6 5 5 4 4 3 2 2 2 2 2
16 7 7 6 7 8 8 7 6 6 6 6 6 7 7 6 6 5 5 5 6 5 5 3 3 2 2 4 7 6 4 3 2 2 2 2 2 2
10 7 7 7 7 7 7 7 7 7 6 6 7 7 7 7 6 6 5 5 5 5 5 3 3 3 4 4 4 6 4 3 2 2 2 2 2 2
6 8 8 8 7 7 7 7 7 6 6 6 6 6 6 7 7 6 6 6 6 5 5 4 4 5 5 4 3 3 5 4 3 2 2 1 1 2
8 8 8 8 7 7 7 7 7 8 7 7 6 7 6 6 7 7 6 10 8 5 6 5 6 7 3 2 2 2 2 5 5 3 2 2 1 1
8 8 8 8 8 7 7 7 8 8 7 7 7 6 6 6 7 8 7 6 6 6 6 5 3 2 3 4 4 3 2 2 4 6 6 5 3 3
8 8 8 8 8 7 7 8 9 8 7 7 7 6 6 7 7 7 7 6 6 6 5 4 2 3 3 4 4 3 3 2 2 2 3 6 8 7
Wind_Direction
247 247 245 246 239 236 233 227 253 286 286 251 259 267 277 285 289 289 278 291 295 293 291 290 289 287 286 284 282 280 279 276 275 273 271 269 268 268
247 248 249 248 245 239 237 236 231 256 278 257 252 268 280 286 290 291 285 294 296 295 293 291 289 288 287 284 282 280 278 276 274 273 271 268 266 265
258 253 255 252 250 248 242 241 242 244 270 278 255 261 264 271 281 281 279 277 281 290 292 290 289 288 286 284 283 280 278 276 275 273 272 270 268 267
262 258 260 259 252 249 246 246 248 244 260 280 282 272 266 267 271 274 281 280 275 286 290 290 289 288 286 285 283 282 281 280 278 276 274 273 272 271
257 256 259 257 258 255 249 251 253 256 253 269 281 276 271 268 271 273 273 275 278 283 288 289 289 288 287 286 284 284 283 283 281 278 274 272 272 272
254 252 253 250 254 256 257 253 253 257 258 265 276 278 272 264 263 272 280 270 274 279 281 283 284 287 288 288 287 286 285 284 282 279 275 272 271 270
257 252 251 257 261 265 264 254 250 256 262 269 276 280 277 274 268 267 279 281 272 265 268 271 277 275 280 283 286 284 282 280 279 277 274 272 271 270
261 259 259 269 274 278 280 281 277 271 268 268 274 276 277 272 273 273 281 285 285 250 254 269 264 270 268 260 272 277 277 276 276 275 273 271 269 267
260 263 269 268 280 269 275 280 281 279 276 273 272 272 274 270 271 275 271 271 274 268 269 278 263 267 266 270 277 279 279 277 276 276 274 272 272 269
261 260 263 266 265 272 261 260 258 261 266 270 263 264 265 264 259 266 272 274 270 262 250 272 269 265 272 266 276 278 279 278 278 276 276 274 273 273
263 261 265 263 272 282 279 270 268 263 270 272 271 273 275 282 285 282 275 280 282 272 230 246 264 271 272 268 272 280 282 283 282 282 282 282 279 276
268 262 273 278 282 285 279 272 275 272 264 269 271 275 277 280 284 275 264 272 278 278 235 232 255 276 285 264 270 287 292 289 288 288 288 287 285 281
275 268 263 283 287 288 286 277 276 281 269 263 262 260 260 258 259 253 242 246 259 262 247 244 259 246 256 279 279 268 266 275 290 292 294 290 286 277
280 274 272 285 288 290 290 285 287 290 280 266 264 265 261 258 255 252 250 246 245 254 257 247 255 252 260 269 273 271 270 267 267 273 277 294 295 288
279 283 288 293 296 295 290 290 291 286 273 269 269 266 258 257 256 259 261 258 256 252 252 244 244 251 248 257 262 258 272 272 256 259 270 275 279 292
284 284 288 291 291 290 290 290 278 264 266 263 266 266 263 261 259 252 260 267 269 271 254 242 241 242 250 250 255 258 241 251 266 260 266 275 273 256
287 279 274 282 282 281 277 270 263 265 270 262 264 268 269 267 264 252 248 253 254 267 278 269 249 244 244 247 252 248 240 241 244 243 243 265 265 250
300 291 286 282 284 285 285 281 272 267 264 262 262 263 267 267 268 259 251 250 256 259 260 264 270 278 271 257 234 242 237 238 239 228 217 233 263 261
297 286 283 282 281 281 280 277 273 270 265 263 264 261 263 265 264 263 258 254 257 257 255 247 236 237 253 266 271 226 220 231 221 216 215 216 237 257
278 278 278 278 278 277 278 276 275 272 266 263 261 260 259 261 262 260 256 252 257 259 258 245 230 227 233 244 253 260 233 220 208 215 219 222 253 277
280 277 275 275 275 274 274 274 274 273 268 263 261 260 256 255 258 257 256 259 259 254 253 250 241 244 244 229 248 253 256 233 215 202 185 184 217 239
280 279 279 276 273 271 271 272 272 269 266 262 258 257 254 252 255 255 253 253 250 248 251 253 240 231 214 221 239 246 249 247 239 233 223 206 187 197
277 277 277 275 270 268 267 267 267 269 264 259 257 254 253 255 253 252 251 249 250 250 249 246 232 219 223 224 235 244 240 226 211 224 239 234 233 236